Location: Emblem
(62.4273°N, 6.4710°E)
Time: 05:51:16
(UTC+02:00)

Gurwin Techsat 1B - Visible Passes

Search period start: 29 March 2023 00:00
Search period end: 08 April 2023 00:00
Orbit: 811 x 814 km, 98.9° (Epoch: 28 March)

Date Brightness Start Highest point End Pass type
(mag) Time Alt. Az. Time Alt. Az. Time Alt. Az.
29 Mar 10.5 03:28:21 10° NE 03:32:39 24° E 03:36:54 10° SE visible
29 Mar 8.7 05:07:56 10° NNE 05:13:19 86° ESE 05:18:38 10° SSW visible
30 Mar 10.9 03:05:41 10° NE 03:09:15 18° E 03:12:48 10° SE visible
30 Mar 9.0 04:44:54 10° NNE 04:50:13 64° ESE 04:55:28 10° S visible
31 Mar 11.1 02:43:23 10° NE 02:45:47 13° ENE 02:48:11 10° ESE visible
31 Mar 9.5 04:21:54 10° NNE 04:27:04 48° E 04:32:13 10° S visible
31 Mar 9.0 06:01:57 10° NNE 06:07:07 51° WNW 06:12:14 10° SW visible
01 Apr 10.0 03:58:57 10° NNE 04:03:51 35° E 04:08:43 10° SSE visible
01 Apr 8.7 05:38:51 10° NNE 05:44:09 67° WNW 05:49:26 10° SW visible
02 Apr 10.4 03:36:05 10° NNE 03:40:33 26° E 03:45:00 10° SSE visible
02 Apr 8.6 05:15:46 10° NNE 05:21:08 87° WNW 05:26:29 10° SSW visible
03 Apr 10.8 03:13:21 10° NE 03:17:11 20° E 03:21:00 10° SE visible
03 Apr 8.9 04:52:42 10° NNE 04:58:04 71° ESE 05:03:23 10° SSW visible
04 Apr 11.1 02:50:53 10° NE 02:53:45 14° E 02:56:36 10° ESE visible
04 Apr 9.3 04:29:41 10° NNE 04:34:55 52° ESE 04:40:08 10° S visible
05 Apr 11.4 02:29:37 10° ENE 02:30:13 10° ENE 02:30:50 10° E visible
05 Apr 9.8 04:06:43 10° NNE 04:11:43 39° E 04:16:41 10° SSE visible
05 Apr 8.8 05:46:40 10° NNE 05:51:56 61° WNW 05:57:11 10° SW visible
06 Apr 10.3 03:43:50 10° NNE 03:48:27 29° E 03:53:03 10° SSE visible
06 Apr 8.6 05:23:35 10° NNE 05:28:56 80° WNW 05:34:16 10° SSW visible
07 Apr 10.7 03:21:02 10° NE 03:25:06 22° E 03:29:09 10° SE visible
07 Apr 8.8 05:00:31 10° NNE 05:05:53 78° ESE 05:11:14 10° SSW visible
